| time (UTC) | temp C | wind direction | speed KPH | gust KPH | rain 1hr cm | rain 24hr cm | rain mn cm | humidity % | barometer mb |
| 20260509203018 | 16 | 181 | 8.0 | 16.1 | 0.00 | 0.00 | 0.00 | 47 | 1007.4 |
| 20260509202018 | 16 | 183 | 9.7 | 19.3 | 0.00 | 0.00 | 0.00 | 44 | 1007.5 |
| 20260509201019 | 17 | 181 | 8.0 | 17.7 | 0.00 | 0.00 | 0.00 | 41 | 1007.6 |
| 20260509200019 | 17 | 182 | 9.7 | 25.7 | 0.00 | 0.00 | 0.00 | 42 | 1007.6 |
| 20260509195041 | 17 | 186 | 9.7 | 16.1 | 0.00 | 0.00 | 0.00 | 39 | 1007.7 |
| 20260509194019 | 17 | 184 | 9.7 | 19.3 | 0.00 | 0.00 | 0.00 | 34 | 1007.7 |
| 20260509193017 | 17 | 191 | 9.7 | 19.3 | 0.00 | 0.00 | 0.00 | 31 | 1007.7 |
| 20260509192020 | 17 | 180 | 9.7 | 20.9 | 0.00 | 0.00 | 0.00 | 29 | 1007.7 |
| 20260509191040 | 17 | 180 | 9.7 | 27.4 | 0.00 | 0.00 | 0.00 | 28 | 1007.8 |
| 20260509190017 | 17 | 188 | 6.4 | 17.7 | 0.00 | 0.00 | 0.00 | 30 | 1007.8 |
| 20260509185020 | 17 | 188 | 8.0 | 20.9 | 0.00 | 0.00 | 0.00 | 28 | 1008.0 |
| 20260509184037 | 17 | 184 | 8.0 | 14.5 | 0.00 | 0.00 | 0.00 | 26 | 1008.2 |
| 20260509183018 | 17 | 183 | 8.0 | 17.7 | 0.00 | 0.00 | 0.00 | 28 | 1008.2 |
| 20260509182020 | 17 | 176 | 6.4 | 17.7 | 0.00 | 0.00 | 0.00 | 29 | 1008.5 |
| 20260509181018 | 17 | 184 | 8.0 | 20.9 | 0.00 | 0.00 | 0.00 | 27 | 1008.5 |
| 20260509180019 | 17 | 175 | 6.4 | 14.5 | 0.00 | 0.00 | 0.00 | 28 | 1008.8 |
| 20260509175039 | 17 | 172 | 4.8 | 9.7 | 0.00 | 0.00 | 0.00 | 28 | 1009.0 |
| 20260509174018 | 17 | 176 | 8.0 | 16.1 | 0.00 | 0.00 | 0.00 | 28 | 1009.1 |
| 20260509173019 | 17 | 176 | 8.0 | 20.9 | 0.00 | 0.00 | 0.00 | 28 | 1009.2 |
| 20260509172040 | 17 | 178 | 6.4 | 16.1 | 0.00 | 0.00 | 0.00 | 28 | 1009.3 |
| 20260509171020 | 16 | 189 | 6.4 | 14.5 | 0.00 | 0.00 | 0.00 | 29 | 1009.5 |
| 20260509170020 | 16 | 184 | 8.0 | 14.5 | 0.00 | 0.00 | 0.00 | 28 | 1009.8 |
| 20260509165019 | 16 | 168 | 9.7 | 19.3 | 0.00 | 0.00 | 0.00 | 28 | 1009.9 |
| 20260509164019 | 16 | 191 | 6.4 | 16.1 | 0.00 | 0.00 | 0.00 | 30 | 1009.9 |
| 20260509163040 | 16 | 181 | 9.7 | 17.7 | 0.00 | 0.00 | 0.00 | 30 | 1010.0 |
| 20260509162018 | 16 | 183 | 8.0 | 17.7 | 0.00 | 0.00 | 0.00 | 31 | 1010.2 |
| 20260509161021 | 16 | 183 | 8.0 | 14.5 | 0.00 | 0.00 | 0.00 | 30 | 1010.3 |
| 20260509160019 | 16 | 183 | 9.7 | 19.3 | 0.00 | 0.00 | 0.00 | 32 | 1010.4 |
| 20260509155018 | 15 | 179 | 9.7 | 16.1 | 0.00 | 0.00 | 0.00 | 35 | 1010.7 |
| 20260509154041 | 15 | 177 | 9.7 | 16.1 | 0.00 | 0.00 | 0.00 | 35 | 1010.8 |
| 20260509153017 | 15 | 177 | 9.7 | 16.1 | 0.00 | 0.00 | 0.00 | 37 | 1011.1 |
| 20260509152017 | 15 | 169 | 9.7 | 17.7 | 0.00 | 0.00 | 0.00 | 37 | 1011.1 |
| 20260509151022 | 14 | 181 | 6.4 | 14.5 | 0.00 | 0.00 | 0.00 | 39 | 1011.2 |
| 20260509150018 | 13 | 192 | 9.7 | 16.1 | 0.00 | 0.00 | 0.00 | 39 | 1011.3 |
| 20260509145018 | 13 | 199 | 9.7 | 17.7 | 0.00 | 0.00 | 0.00 | 42 | 1011.3 |
| 20260509144018 | 13 | 181 | 8.0 | 17.7 | 0.00 | 0.00 | 0.00 | 42 | 1011.3 |
| 20260509143019 | 13 | 200 | 8.0 | 16.1 | 0.00 | 0.00 | 0.00 | 43 | 1011.2 |
| 20260509142019 | 13 | 185 | 6.4 | 16.1 | 0.00 | 0.00 | 0.00 | 45 | 1011.4 |
| 20260509141020 | 12 | 170 | 6.4 | 12.9 | 0.00 | 0.00 | 0.00 | 47 | 1011.4 |
| 20260509140019 | 12 | 179 | 8.0 | 16.1 | 0.00 | 0.00 | 0.00 | 48 | 1011.5 |
| 20260509135020 | 12 | 181 | 8.0 | 17.7 | 0.00 | 0.00 | 0.00 | 49 | 1011.5 |
| 20260509134039 | 12 | 177 | 6.4 | 17.7 | 0.00 | 0.00 | 0.00 | 50 | 1011.6 |
| 20260509133019 | 11 | 198 | 8.0 | 14.5 | 0.00 | 0.00 | 0.00 | 51 | 1011.7 |
| 20260509132016 | 11 | 183 | 8.0 | 16.1 | 0.00 | 0.00 | 0.00 | 52 | 1011.7 |
| 20260509131020 | 11 | 191 | 6.4 | 12.9 | 0.00 | 0.00 | 0.00 | 54 | 1011.8 |
| 20260509130021 | 10 | 193 | 6.4 | 14.5 | 0.00 | 0.00 | 0.00 | 56 | 1011.9 |
| 20260509125017 | 10 | 193 | 6.4 | 12.9 | 0.00 | 0.00 | 0.00 | 57 | 1012.0 |
| 20260509124020 | 10 | 191 | 6.4 | 12.9 | 0.00 | 0.00 | 0.00 | 57 | 1012.0 |
| 20260509123018 | 9 | 173 | 6.4 | 12.9 | 0.00 | 0.00 | 0.00 | 60 | 1012.0 |
| 20260509122038 | 8 | 197 | 6.4 | 9.7 | 0.00 | 0.00 | 0.00 | 63 | 1011.9 |
| 20260509121018 | 8 | 184 | 4.8 | 11.3 | 0.00 | 0.00 | 0.00 | 64 | 1011.8 |
| 20260509120018 | 7 | 187 | 4.8 | 11.3 | 0.00 | 0.00 | 0.00 | 65 | 1012.0 |
| 20260509115018 | 7 | 187 | 4.8 | 8.0 | 0.00 | 0.00 | 0.00 | 67 | 1012.0 |
| 20260509114042 | 7 | 177 | 6.4 | 12.9 | 0.00 | 0.00 | 0.00 | 67 | 1011.9 |
| 20260509113040 | 6 | 182 | 6.4 | 12.9 | 0.00 | 0.00 | 0.00 | 70 | 1012.1 |
| 20260509112020 | 6 | 203 | 6.4 | 11.3 | 0.00 | 0.00 | 0.00 | 73 | 1012.1 |
| 20260509111039 | 5 | 210 | 6.4 | 11.3 | 0.00 | 0.00 | 0.00 | 74 | 1012.2 |
| 20260509110019 | 5 | 213 | 4.8 | 9.7 | 0.00 | 0.00 | 0.00 | 74 | 1012.1 |
| 20260509105019 | 4 | 201 | 6.4 | 11.3 | 0.00 | 0.00 | 0.00 | 74 | 1012.0 |
| 20260509104019 | 4 | 193 | 4.8 | 9.7 | 0.00 | 0.00 | 0.00 | 74 | 1011.9 |
| 20260509103019 | 4 | 188 | 4.8 | 8.0 | 0.00 | 0.00 | 0.00 | 74 | 1011.8 |
| 20260509102044 | 4 | 188 | 4.8 | 8.0 | 0.00 | 0.00 | 0.00 | 74 | 1011.7 |
| 20260509101019 | 4 | 205 | 4.8 | 8.0 | 0.00 | 0.00 | 0.00 | 74 | 1011.7 |
| 20260509100019 | 4 | 205 | 4.8 | 9.7 | 0.00 | 0.00 | 0.00 | 74 | 1011.6 |
| 20260509095040 | 4 | 194 | 4.8 | 8.0 | 0.00 | 0.00 | 0.00 | 74 | 1011.5 |
| 20260509094022 | 4 | 211 | 3.2 | 6.4 | 0.00 | 0.00 | 0.00 | 74 | 1011.5 |
| 20260509093024 | 4 | 209 | 3.2 | 4.8 | 0.00 | 0.00 | 0.00 | 74 | 1011.3 |
| 20260509092023 | 4 | 209 | 3.2 | 6.4 | 0.00 | 0.00 | 0.00 | 73 | 1011.3 |
| 20260509091023 | 4 | 210 | 3.2 | 3.2 | 0.00 | 0.00 | 0.00 | 73 | 1011.3 |
| 20260509090023 | 4 | 201 | 3.2 | 4.8 | 0.00 | 0.00 | 0.00 | 73 | 1011.2 |
| 20260509085024 | 4 | 188 | 3.2 | 8.0 | 0.00 | 0.00 | 0.00 | 72 | 1011.2 |
| 20260509084024 | 4 | 199 | 4.8 | 8.0 | 0.00 | 0.00 | 0.00 | 71 | 1011.3 |
| 20260509083021 | 4 | 199 | 4.8 | 11.3 | 0.00 | 0.00 | 0.00 | 70 | 1011.4 |
| 20260509082022 | 5 | 195 | 4.8 | 9.7 | 0.00 | 0.00 | 0.00 | 70 | 1011.2 |
| 20260509081024 | 5 | 196 | 4.8 | 8.0 | 0.00 | 0.00 | 0.00 | 69 | 1011.2 |
| 20260509080104 | 5 | 195 | 3.2 | 6.4 | 0.00 | 0.00 | 0.00 | 69 | 1011.2 |
| 20260509075024 | 5 | 193 | 4.8 | 6.4 | 0.00 | 0.00 | 0.00 | 69 | 1011.2 |
| 20260509074026 | 5 | 196 | 3.2 | 6.4 | 0.00 | 0.00 | 0.00 | 69 | 1011.3 |
| 20260509073024 | 5 | 201 | 3.2 | 6.4 | 0.00 | 0.00 | 0.00 | 69 | 1011.2 |
| 20260509072025 | 5 | 200 | 3.2 | 6.4 | 0.00 | 0.00 | 0.00 | 68 | 1011.2 |
| 20260509071208 | 6 | 187 | 3.2 | 6.4 | 0.00 | 0.00 | 0.00 | 68 | 1011.1 |
| 20260509070025 | 6 | 191 | 3.2 | 6.4 | 0.00 | 0.00 | 0.00 | 65 | 1011.0 |
| 20260509065026 | 6 | 182 | 3.2 | 6.4 | 0.00 | 0.00 | 0.00 | 64 | 1011.0 |
| 20260509064026 | 7 | 194 | 3.2 | 4.8 | 0.00 | 0.00 | 0.00 | 62 | 1011.0 |
| 20260509063043 | 7 | 184 | 4.8 | 8.0 | 0.00 | 0.00 | 0.00 | 60 | 1010.9 |
| 20260509062026 | 7 | 187 | 4.8 | 8.0 | 0.00 | 0.00 | 0.00 | 61 | 1010.9 |
| 20260509061027 | 7 | 207 | 3.2 | 4.8 | 0.00 | 0.00 | 0.00 | 61 | 1011.0 |
| 20260509060027 | 7 | 196 | 4.8 | 6.4 | 0.00 | 0.00 | 0.00 | 61 | 1011.0 |
| 20260509055026 | 7 | 189 | 4.8 | 6.4 | 0.00 | 0.00 | 0.00 | 60 | 1011.0 |
| 20260509054027 | 7 | 194 | 3.2 | 8.0 | 0.00 | 0.00 | 0.00 | 60 | 1011.1 |
| 20260509053023 | 7 | 194 | 4.8 | 9.7 | 0.00 | 0.00 | 0.00 | 59 | 1011.0 |
| 20260509052040 | 7 | 192 | 4.8 | 9.7 | 0.00 | 0.00 | 0.00 | 60 | 1011.0 |
| 20260509051019 | 7 | 199 | 4.8 | 9.7 | 0.00 | 0.00 | 0.00 | 60 | 1011.0 |
| 20260509050018 | 7 | 186 | 4.8 | 9.7 | 0.00 | 0.00 | 0.00 | 62 | 1011.0 |
| 20260509045040 | 7 | 189 | 4.8 | 11.3 | 0.00 | 0.00 | 0.00 | 63 | 1011.0 |
| 20260509044039 | 7 | 185 | 4.8 | 9.7 | 0.00 | 0.00 | 0.00 | 64 | 1011.0 |
| 20260509043020 | 8 | 180 | 4.8 | 8.0 | 0.00 | 0.00 | 0.00 | 61 | 1011.0 |
| 20260509042019 | 8 | 193 | 4.8 | 8.0 | 0.00 | 0.00 | 0.00 | 60 | 1011.0 |
| 20260509041019 | 8 | 188 | 3.2 | 8.0 | 0.00 | 0.00 | 0.00 | 61 | 1010.9 |
| 20260509040020 | 8 | 200 | 3.2 | 8.0 | 0.00 | 0.00 | 0.00 | 61 | 1010.9 |
| 20260509035019 | 8 | 197 | 3.2 | 6.4 | 0.00 | 0.00 | 0.00 | 59 | 1011.0 |
| 20260509034037 | 9 | 206 | 3.2 | 8.0 | 0.00 | 0.00 | 0.00 | 57 | 1010.9 |
| 20260509033020 | 9 | 209 | 3.2 | 8.0 | 0.00 | 0.00 | 0.00 | 57 | 1010.9 |
| 20260509032017 | 9 | 216 | 1.6 | 4.8 | 0.00 | 0.00 | 0.00 | 56 | 1010.8 |
| 20260509031017 | 9 | 215 | 3.2 | 9.7 | 0.00 | 0.00 | 0.00 | 56 | 1010.8 |
| 20260509030042 | 10 | 214 | 3.2 | 8.0 | 0.00 | 0.00 | 0.00 | 56 | 1010.8 |
| 20260509025018 | 10 | 214 | 4.8 | 8.0 | 0.00 | 0.00 | 0.00 | 56 | 1010.8 |
| 20260509024018 | 10 | 212 | 4.8 | 9.7 | 0.00 | 0.00 | 0.00 | 56 | 1010.8 |
| 20260509023018 | 10 | 211 | 3.2 | 6.4 | 0.00 | 0.00 | 0.00 | 55 | 1010.7 |
| 20260509022018 | 10 | 204 | 3.2 | 9.7 | 0.00 | 0.00 | 0.00 | 54 | 1010.7 |
| 20260509021019 | 10 | 227 | 3.2 | 6.4 | 0.00 | 0.00 | 0.00 | 53 | 1010.6 |
| 20260509020020 | 10 | 230 | 3.2 | 8.0 | 0.00 | 0.00 | 0.00 | 54 | 1010.6 |
| 20260509015019 | 10 | 217 | 1.6 | 6.4 | 0.00 | 0.00 | 0.00 | 54 | 1010.6 |
| 20260509014020 | 10 | 208 | 4.8 | 9.7 | 0.00 | 0.00 | 0.00 | 52 | 1010.4 |
| 20260509013039 | 10 | 208 | 3.2 | 8.0 | 0.00 | 0.00 | 0.00 | 52 | 1010.3 |
| 20260509012019 | 10 | 217 | 3.2 | 8.0 | 0.00 | 0.00 | 0.00 | 52 | 1010.2 |
| 20260509011019 | 10 | 225 | 4.8 | 12.9 | 0.00 | 0.00 | 0.00 | 52 | 1010.1 |
| 20260509010020 | 10 | 249 | 4.8 | 16.1 | 0.00 | 0.00 | 0.00 | 51 | 1010.0 |
| 20260509005020 | 10 | 240 | 4.8 | 9.7 | 0.00 | 0.00 | 0.00 | 51 | 1009.9 |
| 20260509004037 | 10 | 225 | 4.8 | 11.3 | 0.00 | 0.00 | 0.00 | 51 | 1009.7 |
| 20260509003020 | 10 | 213 | 4.8 | 12.9 | 0.00 | 0.00 | 0.00 | 51 | 1009.7 |
| 20260509002038 | 11 | 221 | 4.8 | 14.5 | 0.00 | 0.00 | 0.00 | 51 | 1009.6 |
| 20260509001018 | 11 | 210 | 4.8 | 11.3 | 0.00 | 0.00 | 0.00 | 49 | 1009.5 |
| 20260509000020 | 11 | 208 | 6.4 | 14.5 | 0.00 | 0.00 | 0.00 | 48 | 1009.4 |
| 20260508235019 | 11 | 205 | 4.8 | 12.9 | 0.00 | 0.00 | 0.00 | 47 | 1009.3 |
| 20260508234018 | 11 | 199 | 4.8 | 11.3 | 0.00 | 0.00 | 0.00 | 46 | 1009.2 |
| 20260508233021 | 11 | 217 | 3.2 | 9.7 | 0.00 | 0.00 | 0.00 | 46 | 1009.2 |
| 20260508232019 | 11 | 202 | 4.8 | 8.0 | 0.00 | 0.00 | 0.00 | 46 | 1009.1 |
| 20260508231020 | 12 | 216 | 3.2 | 8.0 | 0.00 | 0.00 | 0.00 | 44 | 1009.1 |
| 20260508230018 | 12 | 196 | 4.8 | 12.9 | 0.00 | 0.00 | 0.00 | 44 | 1009.1 |
| 20260508225020 | 11 | 243 | 4.8 | 12.9 | 0.00 | 0.00 | 0.00 | 45 | 1009.2 |
| 20260508224019 | 11 | 201 | 4.8 | 8.0 | 0.00 | 0.00 | 0.00 | 47 | 1009.2 |
| 20260508223039 | 11 | 217 | 4.8 | 9.7 | 0.00 | 0.00 | 0.00 | 47 | 1009.2 |
| 20260508222019 | 11 | 210 | 6.4 | 12.9 | 0.00 | 0.00 | 0.00 | 47 | 1009.1 |
| 20260508221037 | 11 | 249 | 4.8 | 12.9 | 0.00 | 0.00 | 0.00 | 46 | 1009.1 |
| 20260508220020 | 11 | 284 | 3.2 | 8.0 | 0.00 | 0.00 | 0.00 | 44 | 1009.0 |
| 20260508215040 | 11 | 184 | 4.8 | 11.3 | 0.00 | 0.00 | 0.00 | 48 | 1009.1 |
| 20260508214019 | 11 | 275 | 4.8 | 11.3 | 0.00 | 0.00 | 0.00 | 50 | 1009.3 |
| 20260508213017 | 11 | 213 | 3.2 | 9.7 | 0.00 | 0.00 | 0.00 | 51 | 1009.2 |
| 20260508212100 | 11 | 199 | 4.8 | 11.3 | 0.00 | 0.00 | 0.00 | 50 | 1009.1 |
| 20260508211017 | 11 | 199 | 6.4 | 11.3 | 0.00 | 0.00 | 0.00 | 49 | 1008.9 |
| 20260508210019 | 11 | 204 | 6.4 | 14.5 | 0.00 | 0.00 | 0.00 | 48 | 1008.8 |
| 20260508205021 | 11 | 195 | 6.4 | 11.3 | 0.00 | 0.00 | 0.00 | 46 | 1008.7 |
| 20260508204019 | 11 | 192 | 4.8 | 11.3 | 0.00 | 0.00 | 0.00 | 49 | 1008.7 |